Flag for China Weather past 2 weeks in Taiyuan, Shanxi, China

Now
54 °F

Haze.


Feels Like: 52 °F
Forecast: 51 / 67 °F
Wind: 6 mph from Northeast

Location: Taiyuan Airport

Current Time: Oct 21, 2014 at 3:07:29 AM

Latest Report: Oct 21, 2014 at 2:30 AM


Visibility: 1 mi

Pressure: 30.18 "Hg

Humidity: 72%

Dew point: 45 °F

Location of TaiyuanLocation

Historic Weather in Taiyuan — Graph

°F

Taiyuan temperature yesterday

Maximum temperature yesterday: 64 °F (at 2:30 PM)
Minimum temperature yesterday: 41 °F (at 6:30 AM)
Average temperature yesterday: 53 °F

Past Weeks' High & Low Weather Summary

 TemperatureHumidityPressure
High77 °F (Oct 9, 2:00 PM)94% (Oct 9, 3:30 AM)30.54 "Hg (Oct 9, 3:30 AM)
Low34 °F (Oct 16, 6:00 AM)13% (Oct 15, 3:00 PM)29.95 "Hg (Oct 19, 1:00 PM)
Average55 °F61%30.17 "Hg
* Reported Oct 6 1:00 AM — Oct 21 1:30 AM, Taiyuan, Weather by CustomWeather, © 2014

Note: Actual official high and low records may vary slightly from our data, if they occured in-between our weather recording intervals... More about our weather records

Advertising

Taiyuan weather history for previous 24 hours

 ConditionsComfort  
Time TempWeatherWind HumidityBarometerVisibility
1:30 AM
Oct 21
55 °FHaze.8 mph67%30.18 "Hg1 mi
1:00 AM55 °FHaze.8 mph67%30.18 "Hg1 mi
12:30 AM55 °FHaze.8 mph67%30.18 "Hg1 mi
12:00 AM55 °FHaze.13 mph67%30.15 "Hg1 mi
11:30 PM
Oct 20
55 °FHaze.13 mph67%30.15 "Hg1 mi
11:00 PM55 °FHaze.15 mph67%30.15 "Hg1 mi
10:30 PM55 °FHaze.15 mph67%30.15 "Hg2 mi
10:00 PM57 °FHaze.13 mph55%30.12 "Hg2 mi
9:30 PM57 °FHaze.10 mph51%30.12 "Hg3 mi
9:00 PM57 °FHaze.6 mph55%30.12 "Hg2 mi
8:30 PM54 °FHaze.1 mph72%30.12 "Hg1 mi
8:00 PM55 °FHaze.1 mph67%30.09 "Hg1 mi
7:30 PM55 °FHaze.1 mph67%30.09 "Hg2 mi
7:00 PM55 °FHaze.1 mph67%30.09 "Hg2 mi
6:30 PM55 °FHaze.1 mph67%30.07 "Hg2 mi
6:00 PM55 °FHaze.1 mph63%30.07 "Hg3 mi
5:30 PM57 °FHaze.3 mph59%30.04 "Hg3 mi
5:00 PM59 °FHaze.1 mph59%30.04 "Hg3 mi
4:30 PM61 °FClear.1 mph48%30.04 "Hg4 mi
4:00 PM63 °FClear.1 mph45%30.04 "Hg4 mi
3:30 PM63 °FClear.1 mph45%30.04 "Hg4 mi
3:00 PM63 °FClear.1 mph39%30.01 "Hg4 mi
2:30 PM64 °FClear.1 mph40%30.04 "Hg4 mi
2:00 PM63 °FHaze.1 mph42%30.04 "Hg3 mi
1:30 PM63 °FHaze.1 mph42%30.07 "Hg3 mi
1:00 PM61 °FHaze.1 mph45%30.07 "Hg3 mi
11:00 AM59 °FHaze.6 mph51%30.09 "Hg3 mi
10:30 AM57 °FHaze.6 mph55%30.09 "Hg3 mi
10:00 AM57 °FHaze.1 mph55%30.09 "Hg2 mi
9:30 AM54 °FHaze.1 mph67%30.09 "Hg2 mi
9:00 AM52 °FHaze.1 mph77%30.09 "Hg1 mi
8:30 AM48 °FFog.No wind87%30.09 "Hg1 mi
8:00 AM46 °FFog.1 mph87%30.09 "Hg1 mi
7:30 AM43 °FFog.1 mph87%30.07 "Hg1 mi
7:00 AM43 °FFog.1 mph87%30.07 "Hg1 mi
6:30 AM41 °FFog.1 mph93%30.07 "Hg1 mi
6:00 AM43 °FFog.No wind87%30.07 "Hg2 mi
5:30 AM43 °FFog.3 mph87%30.04 "Hg2 mi
5:00 AM43 °FFog.3 mph87%30.07 "Hg1 mi
4:30 AM45 °FFog.1 mph87%30.07 "Hg1 mi
4:00 AM45 °FFog.1 mph87%30.04 "Hg1 mi
3:30 AM46 °FFog.1 mph87%30.07 "Hg1 mi
3:00 AM45 °FFog.3 mph87%30.07 "Hg1 mi
Weather by CustomWeather, © 2014

See weather overviewHow to use our weather pages